Location: Grange Rosano
(44.4500°N, 6.9667°E)
Time: 21:21:56
(UTC+00:00)

SL-16 R/B - Pass Details

Date: 26 May 2022
Orbit: 839 x 850 km, 71.0° (Epoch: 01 July)

Event Time Altitude Azimuth Distance (km) Brightness Sun altitude
Exits shadow 01:58:24 25° 227° (SW) 1,640 3.1 -16.1°
Maximum altitude 02:01:39 60° 299° (WNW) 966 2.4 -15.8°
Drops below altitude 10° 02:07:16 10° 19° (NNE) 2,475 5.8 -15.2°
Sets 02:09:46 0° 23° (NNE) 3,416 6.9 -14.9°
